Lid_Strength_Index
3 3 3 3 3 3 3 3 3 4 3 3 3 3 3 3 3 6 9 6 4 0 -0 6 9 9 8 10 9 9 14 15 13 11 10 8 10 9 8 10 10 9 8 7 5
3 3 3 3 3 3 4 3 3 3 4 3 3 3 3 3 6 8 4 1 -1 -1 6 9 11 10 12 11 10 11 15 13 10 10 10 9 10 9 9 9 10 10 7 6 6
3 3 3 3 3 3 3 4 4 4 3 4 3 3 3 3 9 6 -1 0 -1 -1 8 9 7 9 13 12 11 12 13 11 10 9 9 9 9 8 10 10 9 9 8 7 7
3 3 3 3 3 3 3 3 3 4 4 4 4 3 3 6 12 7 -2 -1 -1 4 8 7 8 13 14 14 12 14 11 10 10 9 10 10 8 9 9 8 8 7 7 6 7
3 3 3 3 3 3 4 4 3 3 3 3 3 3 6 12 11 5 -1 -1 3 6 7 6 9 12 14 14 13 14 13 11 10 11 11 10 10 10 10 8 8 8 8 7 6
3 3 3 3 3 3 3 3 3 3 3 3 3 3 8 16 11 4 1 4 5 6 6 6 9 9 12 13 13 12 12 11 11 11 11 11 11 11 9 8 7 9 9 8 7
3 3 4 4 4 4 4 4 3 3 3 3 3 3 8 12 5 4 4 6 5 6 6 6 7 10 11 12 12 12 14 12 12 11 11 11 12 12 9 8 9 9 9 9 9
3 3 3 4 4 4 4 3 3 3 3 3 2 6 11 7 5 6 5 6 5 5 6 5 7 10 11 11 12 14 15 16 13 12 10 11 14 10 9 10 10 9 9 9 9
4 4 4 4 4 4 4 4 3 3 2 2 7 9 10 3 5 3 5 7 6 5 6 4 9 11 11 14 15 15 18 17 14 11 11 12 14 10 9 9 10 9 9 9 9
4 4 5 5 4 4 4 3 3 3 2 3 4 10 8 7 4 4 6 6 6 7 9 9 12 13 14 15 18 17 16 15 15 12 12 13 13 11 10 11 10 10 9 9 9
4 4 4 5 5 5 7 8 9 10 7 9 9 10 8 5 4 7 6 7 7 9 13 12 14 15 14 13 13 14 15 15 13 10 12 13 13 12 10 11 10 10 9 9 8
5 5 5 5 5 6 9 11 9 8 11 7 6 7 6 5 8 6 6 9 10 13 13 14 15 12 12 12 13 13 15 15 13 11 13 13 13 12 11 10 10 9 9 9 9
6 5 5 6 6 9 10 9 7 8 12 10 8 8 7 6 8 8 8 10 12 13 14 15 12 11 12 13 13 14 15 15 14 12 13 14 15 13 11 11 9 9 9 8 8
5 5 5 6 9 9 10 7 8 9 15 13 10 8 7 7 9 5 7 9 12 13 13 14 11 12 13 14 13 16 12 12 14 15 18 14 18 15 13 12 10 9 9 9 9
5 5 5 6 11 11 8 8 8 9 19 11 11 7 8 9 9 9 7 9 11 12 13 13 13 14 14 13 12 14 12 13 13 16 18 17 19 17 14 14 12 11 10 9 9
5 5 5 8 10 9 8 8 8 14 19 11 10 11 10 10 11 10 9 9 9 12 13 12 11 12 12 11 12 11 13 14 16 18 21 17 18 17 16 14 12 10 10 9 8
4 4 5 7 11 9 9 9 15 17 11 13 13 11 12 12 12 12 12 13 14 17 16 14 13 12 11 13 12 13 16 20 20 20 19 15 17 16 13 11 10 11 9 8 8
5 5 6 7 8 9 9 12 18 14 12 10 11 11 12 12 12 12 13 14 13 14 16 17 17 12 10 13 14 15 15 18 21 21 18 16 19 15 11 10 9 8 9 8 8
5 8 9 7 7 9 10 16 16 12 11 12 11 13 13 12 12 12 13 13 12 13 16 17 16 11 10 10 11 14 17 14 17 17 22 18 15 12 10 10 10 10 9 9 8
8 10 8 6 7 8 13 15 12 10 10 11 14 13 15 14 13 13 13 11 11 11 12 14 17 13 11 11 11 12 12 16 16 21 22 19 17 16 13 12 10 10 9 8 7
9 10 7 6 5 9 13 13 11 9 9 11 12 13 13 14 13 14 13 11 10 11 11 13 15 15 13 13 14 14 15 14 14 16 21 22 19 13 12 11 11 10 9 8 8
10 11 6 6 9 11 13 10 9 9 8 10 9 10 12 12 13 13 13 11 10 11 14 13 15 18 15 12 12 13 14 14 17 19 17 18 18 10 10 10 10 9 8 7 6
11 11 7 6 12 13 11 10 9 9 9 10 11 10 10 12 14 12 11 9 10 11 12 13 17 19 18 15 14 15 13 14 15 16 18 19 17 10 10 9 8 8 7 6 6
10 12 10 10 10 10 11 11 11 7 8 8 10 10 11 12 11 13 12 10 9 10 7 10 15 17 19 17 15 15 14 13 14 17 16 16 14 10 10 10 9 8 7 7 6
9 10 10 14 11 11 10 10 11 11 8 8 10 11 12 13 13 13 12 11 10 9 11 13 17 16 15 14 14 15 14 12 14 13 16 13 14 11 11 10 9 8 7 7 6
10 11 10 10 9 10 10 10 11 10 9 10 11 10 11 13 12 13 12 12 13 12 13 15 18 17 17 15 15 17 14 12 12 12 13 13 13 9 9 8 8 8 8 8 7
6 7 9 10 10 10 10 10 9 8 8 8 9 11 12 11 10 10 11 11 12 14 15 17 18 19 20 16 16 17 14 13 12 11 12 15 13 10 10 9 9 8 8 8 7